Date String (YYYY-MM-DD hh:mm:ss) UTC,Instrument flags,Ambient pressure (hPa),Sample flow (lpm),Bypass flow (lpm),Sample temperature (°C),Ambient temperature (°C),ASC tube jacket temperature (°C),LED temperature (°C),Box temperature (°C),Sample RH (%),Span deviation,Mass concentration (μg/m³),Mass concentration (μg/m³),Mass concentration (μg/m³)
DateTimeUTC,F1_M11,P_M11,Q1_M11,Q2_M11,T1_M11,T2_M11,T3_M11,T4_M11,T5_M11,U1_M11,ZSPAN_M11,X0_M11,X2_M11,X1_M11
2021-11-19 07:00:00,,0825.1,4.99,0.00,22.3,21.6,00.0,31.3,24.0,08.5,0004.6,0026.33,0007.60,0005.50
2021-11-19 07:01:00,,0825.1,5.01,0.00,22.3,21.6,00.0,31.3,24.1,08.3,0001.2,0025.44,0007.74,0005.61
2021-11-19 07:02:00,,0825.0,4.99,0.00,22.3,21.6,00.0,31.3,24.1,08.1,0000.0,0025.37,0007.65,0005.53
2021-11-19 07:03:00,,0825.0,5.01,0.00,22.3,21.6,00.0,31.3,24.1,08.0,0000.0,0025.14,0007.51,0005.43
2021-11-19 07:04:00,,0825.1,5.00,0.00,22.3,21.6,00.0,31.3,24.1,08.3,0000.0,0026.08,0007.52,0005.41
2021-11-19 07:05:00,,0825.0,4.99,0.00,22.3,21.6,00.0,31.3,24.1,08.5,0001.8,0026.59,0007.66,0005.50
2021-11-19 07:06:00,,0825.1,5.00,0.00,22.3,21.6,00.0,31.3,24.1,08.4,0002.5,0026.03,0007.63,0005.52
2021-11-19 07:07:00,,0825.2,5.01,0.00,22.3,21.7,00.0,31.3,24.1,08.2,0003.9,0024.74,0007.55,0005.47
2021-11-19 07:08:00,,0825.1,4.99,0.00,22.3,21.7,00.0,31.3,24.1,08.1,0003.6,0025.13,0007.61,0005.49
2021-11-19 07:09:00,,0825.0,5.00,0.00,22.3,21.7,00.0,31.3,24.1,08.0,0002.6,0023.90,0007.61,0005.47
2021-11-19 07:10:00,,0825.1,5.01,0.00,22.3,21.7,00.0,31.3,24.1,08.0,0000.1,0024.26,0007.52,0005.44
2021-11-19 07:11:00,,0825.2,5.00,0.00,22.3,21.7,00.0,31.3,24.1,08.1,0000.0,0023.78,0007.36,0005.40
2021-11-19 07:12:00,,0825.1,4.99,0.00,22.3,21.7,00.0,31.3,24.2,08.1,0000.0,0023.90,0007.32,0005.37
2021-11-19 07:13:00,,0825.0,5.00,0.00,22.3,21.7,00.0,31.3,24.2,08.2,0000.0,0023.96,0007.34,0005.39
2021-11-19 07:14:00,,0825.0,5.01,0.00,22.3,21.7,00.0,31.3,24.2,08.2,0000.1,0024.35,0007.36,0005.44
2021-11-19 07:15:00,,0824.9,5.00,0.00,22.3,21.7,00.0,31.3,24.2,08.2,0000.3,0023.86,0007.37,0005.47
2021-11-19 07:16:00,,0824.9,4.99,0.00,22.4,21.7,00.0,31.3,24.2,08.1,0000.0,0024.29,0007.36,0005.45
2021-11-19 07:17:00,,0824.9,5.00,0.00,22.4,21.7,00.0,31.3,24.2,08.0,0000.0,0024.63,0007.34,0005.44
2021-11-19 07:18:00,,0824.9,4.99,0.00,22.4,21.7,00.0,31.3,24.2,07.9,0000.0,0024.39,0007.31,0005.44
2021-11-19 07:19:00,,0824.9,5.01,0.00,22.4,21.7,00.0,31.3,24.2,07.9,0000.0,0023.24,0007.29,0005.43
2021-11-19 07:20:00,,0824.8,4.99,0.00,22.4,21.7,00.0,31.3,24.2,07.5,0000.0,0023.84,0007.27,0005.41
2021-11-19 07:21:00,,0824.8,5.01,0.00,22.4,21.7,00.0,31.3,24.2,07.2,0000.0,0023.48,0007.28,0005.40
2021-11-19 07:22:00,,0824.9,4.99,0.00,22.4,21.7,00.0,31.4,24.2,07.5,0000.0,0022.89,0007.28,0005.38
2021-11-19 07:23:00,,0824.9,5.01,0.00,22.4,21.7,00.0,31.4,24.2,08.0,0000.0,0022.25,0007.29,0005.40
2021-11-19 07:24:00,,0824.9,4.99,0.00,22.4,21.7,00.0,31.4,24.2,07.8,0000.0,0022.42,0007.27,0005.41
2021-11-19 07:25:00,,0824.7,5.00,0.00,22.4,21.7,00.0,31.4,24.2,07.5,0000.0,0022.15,0007.19,0005.36
2021-11-19 07:26:00,,0824.6,5.01,0.00,22.4,21.7,00.0,31.4,24.2,07.4,0000.0,0021.38,0007.05,0005.30
2021-11-19 07:27:00,,0824.6,5.00,0.00,22.4,21.7,00.0,31.4,24.2,07.2,0000.0,0020.41,0006.94,0005.24
2021-11-19 07:28:00,,0824.8,5.01,0.00,22.4,21.7,00.0,31.4,24.2,07.0,0000.0,0020.25,0006.88,0005.18
2021-11-19 07:29:00,,0825.0,5.00,0.00,22.4,21.7,00.0,31.4,24.2,07.7,0000.0,0021.23,0006.88,0005.17
2021-11-19 07:30:00,,0825.2,5.01,0.00,22.4,21.7,00.0,31.4,24.2,08.1,0000.0,0022.27,0006.94,0005.19
2021-11-19 07:31:00,,0825.3,5.00,0.00,22.4,21.7,00.0,31.4,24.2,08.3,0000.0,0022.38,0007.00,0005.26
2021-11-19 07:32:00,,0825.3,4.99,0.00,22.4,21.7,00.0,31.4,24.2,08.5,0000.0,0021.08,0007.03,0005.34
2021-11-19 07:33:00,,0825.3,5.00,0.00,22.4,21.7,00.0,31.4,24.2,08.5,0000.0,0021.79,0007.11,0005.43
2021-11-19 07:34:00,,0825.1,4.99,0.00,22.4,21.7,00.0,31.4,24.2,08.6,0000.0,0023.92,0007.24,0005.48
2021-11-19 07:35:00,,0824.9,5.01,0.00,22.4,21.7,00.0,31.4,24.2,08.7,0000.0,0024.39,0007.36,0005.54
2021-11-19 07:36:00,,0824.9,5.00,0.00,22.4,21.7,00.0,31.4,24.2,08.7,0000.0,0025.83,0007.55,0005.66
2021-11-19 07:37:00,,0824.9,5.01,0.00,22.4,21.7,00.0,31.4,24.2,08.7,0000.0,0027.25,0007.73,0005.79
2021-11-19 07:38:00,,0825.0,5.01,0.00,22.4,21.7,00.0,31.4,24.2,08.7,0000.0,0027.48,0007.86,0005.90
2021-11-19 07:39:00,,0825.2,4.99,0.00,22.4,21.7,00.0,31.4,24.2,08.7,0000.0,0027.08,0008.03,0006.01
2021-11-19 07:40:00,,0825.2,5.01,0.00,22.4,21.7,00.0,31.4,24.2,08.7,0000.0,0026.49,0008.16,0006.11
2021-11-19 07:41:00,,0825.2,4.99,0.00,22.4,21.7,00.0,31.4,24.2,08.7,0000.0,0025.49,0008.18,0006.17
2021-11-19 07:42:00,,0825.1,5.01,0.00,22.4,21.7,00.0,31.4,24.2,08.7,0002.5,0025.20,0008.18,0006.21
2021-11-19 07:43:00,,0825.0,5.00,0.00,22.4,21.7,00.0,31.4,24.2,08.7,0005.0,0025.67,0008.27,0006.24
2021-11-19 07:44:00,,0824.9,5.00,0.00,22.4,21.7,00.0,31.4,24.2,08.7,0005.4,0025.07,0008.33,0006.26
2021-11-19 07:45:00,,0824.9,5.01,0.00,22.4,21.7,00.0,31.4,24.2,08.7,0005.1,0023.99,0008.29,0006.27
2021-11-19 07:46:00,,0824.9,4.99,0.00,22.4,21.7,00.0,31.4,24.2,08.7,0005.0,0024.18,0008.24,0006.27
2021-11-19 07:47:00,,0824.9,5.01,0.00,22.4,21.6,00.0,31.4,24.2,08.6,0005.1,0024.19,0008.13,0006.23
2021-11-19 07:48:00,,0824.8,5.00,0.00,22.4,21.6,00.0,31.4,24.2,08.5,0005.1,0023.88,0008.07,0006.16
2021-11-19 07:49:00,,0824.9,5.01,0.00,22.4,21.7,00.0,31.4,24.2,08.5,0004.5,0024.54,0008.01,0006.10
2021-11-19 07:50:00,,0824.8,4.99,0.00,22.4,21.7,00.0,31.4,24.1,08.4,0004.3,0023.89,0007.89,0006.06
2021-11-19 07:51:00,,0824.9,5.00,0.00,22.4,21.7,00.0,31.4,24.1,08.4,0004.0,0023.12,0007.76,0006.01
2021-11-19 07:52:00,,0824.9,4.99,0.00,22.4,22.4,00.0,31.4,24.3,08.4,0003.3,0023.97,0007.69,0005.95
2021-11-19 07:53:00,,0824.9,5.01,0.00,22.6,23.1,00.0,31.5,24.5,08.4,0002.7,0024.42,0007.64,0005.89
2021-11-19 07:54:00,,0824.9,5.00,0.00,22.7,23.1,00.0,31.5,24.7,08.3,0001.2,0025.05,0007.56,0005.84
2021-11-19 07:55:00,,0824.9,4.99,0.00,22.7,22.9,00.0,31.5,24.7,08.2,0000.0,0025.86,0007.48,0005.78
2021-11-19 07:56:00,,0824.9,5.00,0.00,22.7,22.7,00.0,31.5,24.6,08.3,0000.0,0026.32,0007.45,0005.72
2021-11-19 07:57:00,,0824.9,5.00,0.00,22.7,22.6,00.0,31.5,24.6,08.2,0000.0,0025.21,0007.37,0005.65
2021-11-19 07:58:00,,0824.9,5.01,0.00,22.7,22.5,00.0,31.6,24.6,08.0,0000.0,0023.71,0007.31,0005.60
2021-11-19 07:59:00,,0825.1,5.01,0.00,22.7,22.4,00.0,31.6,24.6,07.9,0000.0,0021.95,0007.17,0005.51
